iso_date,epoch_date,Year,Hour,Min,DOY,POS_DOY,Lat,Lon,BP,Ts,Ta,has_bp,has_ts,has_ta,BuoyID,Buoy_Type,Buoy_Owner,Logistics,Hemisphere
2016-07-08T16:59:31Z,1467997171,2016,17,0,190.708,190.708,70.78192,-163.21445,1013.6,-0.01,-999.0,yes,yes,no,300234063992660,UPTEMPO,PSC-UPTEMPO,Healy,North
2016-07-08T17:09:36Z,1467997776,2016,17,0,190.715,190.715,70.81029,-163.1586,1010.0,6.72,-999.0,yes,yes,no,300234063992660,UPTEMPO,PSC-UPTEMPO,Healy,North
2016-07-08T17:19:40Z,1467998381,2016,17,0,190.722,190.722,70.8326,-163.11539,1010.1,6.45,-999.0,yes,yes,no,300234063992660,UPTEMPO,PSC-UPTEMPO,Healy,North
2016-07-08T17:29:45Z,1467998986,2016,17,0,190.729,190.729,70.85012,-163.06546,1010.0,6.47,-999.0,yes,yes,no,300234063992660,UPTEMPO,PSC-UPTEMPO,Healy,North
2016-07-08T17:39:50Z,1467999590,2016,17,0,190.736,190.736,70.87032,-162.99678,1010.0,6.44,-999.0,yes,yes,no,300234063992660,UPTEMPO,PSC-UPTEMPO,Healy,North
2016-07-08T17:49:55Z,1468000195,2016,17,0,190.743,190.743,70.89122,-162.91931,1010.1,6.2,-999.0,yes,yes,no,300234063992660,UPTEMPO,PSC-UPTEMPO,Healy,North
2016-07-08T18:00:00Z,1468000800,2016,18,0,190.75,190.75,70.90831,-162.8549,1010.1,6.05,-999.0,yes,yes,no,300234063992660,UPTEMPO,PSC-UPTEMPO,Healy,North
2016-07-08T18:10:04Z,1468001405,2016,18,0,190.757,190.757,70.92052,-162.79719,1010.3,6.19,-999.0,yes,yes,no,300234063992660,UPTEMPO,PSC-UPTEMPO,Healy,North
2016-07-08T18:20:09Z,1468002010,2016,18,0,190.764,190.764,70.92705,-162.72482,1010.5,6.08,-999.0,yes,yes,no,300234063992660,UPTEMPO,PSC-UPTEMPO,Healy,North
2016-07-08T18:30:14Z,1468002614,2016,18,0,190.771,190.771,70.93334,-162.6519,1010.6,5.89,-999.0,yes,yes,no,300234063992660,UPTEMPO,PSC-UPTEMPO,Healy,North
2016-07-08T18:40:19Z,1468003219,2016,18,0,190.778,190.778,70.9403,-162.57938,1010.6,5.79,-999.0,yes,yes,no,300234063992660,UPTEMPO,PSC-UPTEMPO,Healy,North
2016-07-08T18:50:24Z,1468003824,2016,18,0,190.785,190.785,70.95387,-162.51906,1010.6,5.89,-999.0,yes,yes,no,300234063992660,UPTEMPO,PSC-UPTEMPO,Healy,North
2016-07-08T19:00:28Z,1468004429,2016,19,0,190.792,190.792,70.97503,-162.4792,1010.6,6.24,-999.0,yes,yes,no,300234063992660,UPTEMPO,PSC-UPTEMPO,Healy,North
2016-07-08T19:10:33Z,1468005034,2016,19,0,190.799,190.799,70.99565,-162.44916,1010.6,6.34,-999.0,yes,yes,no,300234063992660,UPTEMPO,PSC-UPTEMPO,Healy,North
2016-07-08T19:19:12Z,1468005552,2016,19,0,190.805,190.805,71.01336,-162.45544,1010.8,6.79,-999.0,yes,yes,no,300234063992660,UPTEMPO,PSC-UPTEMPO,Healy,North
2016-07-08T19:29:16Z,1468006157,2016,19,0,190.812,190.812,71.03692,-162.47992,1010.9,7.1,-999.0,yes,yes,no,300234063992660,UPTEMPO,PSC-UPTEMPO,Healy,North
2016-07-08T19:40:48Z,1468006848,2016,19,0,190.82,190.82,71.05052,-162.50858,1010.6,7.18,-999.0,yes,yes,no,300234063992660,UPTEMPO,PSC-UPTEMPO,Healy,North
2016-07-08T19:49:26Z,1468007366,2016,19,0,190.826,190.826,71.06017,-162.49199,1010.6,6.95,-999.0,yes,yes,no,300234063992660,UPTEMPO,PSC-UPTEMPO,Healy,North
2016-07-08T19:59:31Z,1468007971,2016,20,0,190.833,190.833,71.07131,-162.45877,1010.7,6.91,-999.0,yes,yes,no,300234063992660,UPTEMPO,PSC-UPTEMPO,Healy,North
2016-07-08T20:09:36Z,1468008576,2016,20,0,190.84,190.84,71.08122,-162.41956,1010.7,7.0,-999.0,yes,yes,no,300234063992660,UPTEMPO,PSC-UPTEMPO,Healy,North
2016-07-08T20:19:40Z,1468009181,2016,20,0,190.847,190.847,71.09216,-162.40341,1010.6,7.12,-999.0,yes,yes,no,300234063992660,UPTEMPO,PSC-UPTEMPO,Healy,North
2016-07-08T20:29:45Z,1468009786,2016,20,0,190.854,190.854,71.10466,-162.37355,1010.7,7.94,-999.0,yes,yes,no,300234063992660,UPTEMPO,PSC-UPTEMPO,Healy,North
2016-07-08T20:39:50Z,1468010390,2016,20,0,190.861,190.861,71.11085,-162.32716,1010.8,8.6,-999.0,yes,yes,no,300234063992660,UPTEMPO,PSC-UPTEMPO,Healy,North
2016-07-08T20:49:55Z,1468010995,2016,20,0,190.868,190.868,71.12079,-162.28664,1010.9,8.87,-999.0,yes,yes,no,300234063992660,UPTEMPO,PSC-UPTEMPO,Healy,North
2016-07-08T21:00:00Z,1468011600,2016,21,0,190.875,190.875,71.1288,-162.26508,1011.0,9.0,-999.0,yes,yes,no,300234063992660,UPTEMPO,PSC-UPTEMPO,Healy,North
2016-07-08T21:10:04Z,1468012205,2016,21,0,190.882,190.882,71.14235,-162.23476,1011.0,9.13,-999.0,yes,yes,no,300234063992660,UPTEMPO,PSC-UPTEMPO,Healy,North
2016-07-08T21:20:09Z,1468012810,2016,21,0,190.889,190.889,71.15733,-162.21104,1011.0,9.46,-999.0,yes,yes,no,300234063992660,UPTEMPO,PSC-UPTEMPO,Healy,North
2016-07-08T21:30:14Z,1468013414,2016,21,0,190.896,190.896,71.17232,-162.19707,1011.1,10.14,-999.0,yes,yes,no,300234063992660,UPTEMPO,PSC-UPTEMPO,Healy,North
2016-07-08T21:40:19Z,1468014019,2016,21,0,190.903,190.903,71.18378,-162.17058,1011.2,10.22,-999.0,yes,yes,no,300234063992660,UPTEMPO,PSC-UPTEMPO,Healy,North
2016-07-08T21:50:24Z,1468014624,2016,21,0,190.91,190.91,71.1929,-162.13771,1011.2,9.66,-999.0,yes,yes,no,300234063992660,UPTEMPO,PSC-UPTEMPO,Healy,North
2016-07-08T22:00:28Z,1468015229,2016,22,0,190.917,190.917,71.2048,-162.10701,1011.1,10.58,-999.0,yes,yes,no,300234063992660,UPTEMPO,PSC-UPTEMPO,Healy,North
2016-07-08T22:10:33Z,1468015834,2016,22,0,190.924,190.924,71.21626,-162.07108,1011.3,12.63,-999.0,yes,yes,no,300234063992660,UPTEMPO,PSC-UPTEMPO,Healy,North
2016-07-08T22:19:12Z,1468016352,2016,22,0,190.93,190.93,71.22148,-162.02603,1011.2,14.41,-999.0,yes,yes,no,300234063992660,UPTEMPO,PSC-UPTEMPO,Healy,North
2016-07-08T22:30:43Z,1468017043,2016,22,0,190.938,190.938,71.22554,-161.97546,1011.3,14.1,-999.0,yes,yes,no,300234063992660,UPTEMPO,PSC-UPTEMPO,Healy,North
2016-07-08T22:40:48Z,1468017648,2016,22,0,190.945,190.945,71.23274,-161.93948,1011.4,11.84,-999.0,yes,yes,no,300234063992660,UPTEMPO,PSC-UPTEMPO,Healy,North
2016-07-08T22:49:26Z,1468018166,2016,22,0,190.951,190.951,71.24438,-161.90588,1011.4,11.14,-999.0,yes,yes,no,300234063992660,UPTEMPO,PSC-UPTEMPO,Healy,North
2016-07-08T22:59:31Z,1468018771,2016,23,0,190.958,190.958,71.25721,-161.87527,1011.4,10.39,-999.0,yes,yes,no,300234063992660,UPTEMPO,PSC-UPTEMPO,Healy,North
2016-07-08T23:09:36Z,1468019376,2016,23,0,190.965,190.965,71.27282,-161.85558,1011.4,11.31,-999.0,yes,yes,no,300234063992660,UPTEMPO,PSC-UPTEMPO,Healy,North
2016-07-08T23:19:40Z,1468019981,2016,23,0,190.972,190.972,71.28635,-161.82806,1011.3,11.58,-999.0,yes,yes,no,300234063992660,UPTEMPO,PSC-UPTEMPO,Healy,North
2016-07-08T23:29:45Z,1468020586,2016,23,0,190.979,190.979,71.30186,-161.80258,1011.4,11.72,-999.0,yes,yes,no,300234063992660,UPTEMPO,PSC-UPTEMPO,Healy,North
2016-07-08T23:39:50Z,1468021190,2016,23,0,190.986,190.986,71.31664,-161.79106,1011.5,10.59,-999.0,yes,yes,no,300234063992660,UPTEMPO,PSC-UPTEMPO,Healy,North
2016-07-08T23:49:55Z,1468021795,2016,23,0,190.993,190.993,71.32895,-161.77638,1011.3,9.98,-999.0,yes,yes,no,300234063992660,UPTEMPO,PSC-UPTEMPO,Healy,North
2016-07-09T00:00:00Z,1468022400,2016,0,0,191.0,191.0,71.34018,-161.78204,1011.4,10.1,-999.0,yes,yes,no,300234063992660,UPTEMPO,PSC-UPTEMPO,Healy,North
2016-07-09T00:10:04Z,1468023005,2016,0,0,191.007,191.007,71.34952,-161.76325,1011.3,9.68,-999.0,yes,yes,no,300234063992660,UPTEMPO,PSC-UPTEMPO,Healy,North
2016-07-09T00:20:09Z,1468023610,2016,0,0,191.014,191.014,71.35937,-161.74377,1011.4,9.83,-999.0,yes,yes,no,300234063992660,UPTEMPO,PSC-UPTEMPO,Healy,North
2016-07-09T00:30:14Z,1468024214,2016,0,0,191.021,191.021,71.37009,-161.73102,1011.3,9.52,-999.0,yes,yes,no,300234063992660,UPTEMPO,PSC-UPTEMPO,Healy,North
2016-07-09T00:40:19Z,1468024819,2016,0,0,191.028,191.028,71.38306,-161.71431,1011.4,9.53,-999.0,yes,yes,no,300234063992660,UPTEMPO,PSC-UPTEMPO,Healy,North
2016-07-09T00:50:24Z,1468025424,2016,0,0,191.035,191.035,71.3973,-161.69431,1011.4,9.56,-999.0,yes,yes,no,300234063992660,UPTEMPO,PSC-UPTEMPO,Healy,North
2016-07-09T01:00:28Z,1468026029,2016,1,0,191.042,191.042,71.40695,-161.67583,1011.4,10.05,-999.0,yes,yes,no,300234063992660,UPTEMPO,PSC-UPTEMPO,Healy,North
2016-07-09T01:10:33Z,1468026634,2016,1,0,191.049,191.049,71.41768,-161.66193,1011.2,9.94,-999.0,yes,yes,no,300234063992660,UPTEMPO,PSC-UPTEMPO,Healy,North
2016-07-09T01:19:12Z,1468027152,2016,1,0,191.055,191.055,71.43094,-161.6516,1011.0,10.02,-999.0,yes,yes,no,300234063992660,UPTEMPO,PSC-UPTEMPO,Healy,North
2016-07-09T01:29:16Z,1468027757,2016,1,0,191.062,191.062,71.44222,-161.64104,1011.0,9.77,-999.0,yes,yes,no,300234063992660,UPTEMPO,PSC-UPTEMPO,Healy,North
2016-07-09T01:40:48Z,1468028448,2016,1,0,191.07,191.07,71.4553,-161.63762,1011.1,9.27,-999.0,yes,yes,no,300234063992660,UPTEMPO,PSC-UPTEMPO,Healy,North
2016-07-09T01:49:26Z,1468028966,2016,1,0,191.076,191.076,71.46864,-161.62456,1011.1,9.35,-999.0,yes,yes,no,300234063992660,UPTEMPO,PSC-UPTEMPO,Healy,North
2016-07-09T01:59:31Z,1468029571,2016,2,0,191.083,191.083,71.48273,-161.62076,1011.1,9.24,-999.0,yes,yes,no,300234063992660,UPTEMPO,PSC-UPTEMPO,Healy,North
2016-07-09T02:09:36Z,1468030176,2016,2,0,191.09,191.09,71.49507,-161.60643,1011.0,8.88,-999.0,yes,yes,no,300234063992660,UPTEMPO,PSC-UPTEMPO,Healy,North
2016-07-09T02:19:40Z,1468030781,2016,2,0,191.097,191.097,71.50848,-161.60562,1011.0,8.68,-999.0,yes,yes,no,300234063992660,UPTEMPO,PSC-UPTEMPO,Healy,North
2016-07-09T02:29:45Z,1468031386,2016,2,0,191.104,191.104,71.52247,-161.60655,1010.9,8.43,-999.0,yes,yes,no,300234063992660,UPTEMPO,PSC-UPTEMPO,Healy,North
2016-07-09T02:39:50Z,1468031990,2016,2,0,191.111,191.111,71.53224,-161.57515,1010.9,8.64,-999.0,yes,yes,no,300234063992660,UPTEMPO,PSC-UPTEMPO,Healy,North
2016-07-09T02:49:55Z,1468032595,2016,2,0,191.118,191.118,71.54414,-161.55806,1011.0,8.61,-999.0,yes,yes,no,300234063992660,UPTEMPO,PSC-UPTEMPO,Healy,North
2016-07-09T03:00:00Z,1468033200,2016,3,0,191.125,191.125,71.55737,-161.54837,1010.9,8.79,-999.0,yes,yes,no,300234063992660,UPTEMPO,PSC-UPTEMPO,Healy,North
2016-07-09T03:10:04Z,1468033805,2016,3,0,191.132,191.132,71.56988,-161.53256,1010.9,8.75,-999.0,yes,yes,no,300234063992660,UPTEMPO,PSC-UPTEMPO,Healy,North
2016-07-09T03:20:09Z,1468034410,2016,3,0,191.139,191.139,71.58334,-161.51588,1010.9,8.86,-999.0,yes,yes,no,300234063992660,UPTEMPO,PSC-UPTEMPO,Healy,North
2016-07-09T03:30:14Z,1468035014,2016,3,0,191.146,191.146,71.59541,-161.50198,1010.8,8.78,-999.0,yes,yes,no,300234063992660,UPTEMPO,PSC-UPTEMPO,Healy,North
2016-07-09T03:40:19Z,1468035619,2016,3,0,191.153,191.153,71.59705,-161.49361,1010.8,7.87,-999.0,yes,yes,no,300234063992660,UPTEMPO,PSC-UPTEMPO,Healy,North
2016-07-09T03:50:24Z,1468036224,2016,3,0,191.16,191.16,71.6001,-161.50122,1010.7,7.59,-999.0,yes,yes,no,300234063992660,UPTEMPO,PSC-UPTEMPO,Healy,North
2016-07-09T04:00:28Z,1468036829,2016,4,0,191.167,191.167,71.59948,-161.50159,1010.7,7.51,-999.0,yes,yes,no,300234063992660,UPTEMPO,PSC-UPTEMPO,Healy,North
2016-07-09T04:10:33Z,1468037434,2016,4,0,191.174,191.174,71.59882,-161.50224,1010.7,6.76,-999.0,yes,yes,no,300234063992660,UPTEMPO,PSC-UPTEMPO,Healy,North
2016-07-09T04:19:12Z,1468037952,2016,4,0,191.18,191.18,71.598,-161.50084,1010.7,6.55,-999.0,yes,yes,no,300234063992660,UPTEMPO,PSC-UPTEMPO,Healy,North
2016-07-09T04:30:43Z,1468038643,2016,4,0,191.188,191.188,71.59777,-161.50259,1010.7,6.21,-999.0,yes,yes,no,300234063992660,UPTEMPO,PSC-UPTEMPO,Healy,North
2016-07-09T04:40:48Z,1468039248,2016,4,0,191.195,191.195,71.59689,-161.50305,1010.7,5.31,-999.0,yes,yes,no,300234063992660,UPTEMPO,PSC-UPTEMPO,Healy,North
2016-07-09T04:49:26Z,1468039766,2016,4,0,191.201,191.201,71.5962,-161.50334,1010.5,5.51,-999.0,yes,yes,no,300234063992660,UPTEMPO,PSC-UPTEMPO,Healy,North
2016-07-09T04:59:31Z,1468040371,2016,5,0,191.208,191.208,71.59575,-161.50417,1010.5,5.81,-999.0,yes,yes,no,300234063992660,UPTEMPO,PSC-UPTEMPO,Healy,North
2016-07-09T05:09:36Z,1468040976,2016,5,0,191.215,191.215,71.59465,-161.50412,1010.4,5.95,-999.0,yes,yes,no,300234063992660,UPTEMPO,PSC-UPTEMPO,Healy,North
2016-07-09T05:19:40Z,1468041581,2016,5,0,191.222,191.222,71.59377,-161.50439,1010.5,6.09,-999.0,yes,yes,no,300234063992660,UPTEMPO,PSC-UPTEMPO,Healy,North
2016-07-09T05:29:45Z,1468042186,2016,5,0,191.229,191.229,71.59341,-161.50594,1010.5,5.78,-999.0,yes,yes,no,300234063992660,UPTEMPO,PSC-UPTEMPO,Healy,North
2016-07-09T05:39:50Z,1468042790,2016,5,0,191.236,191.236,71.59267,-161.50664,1010.4,5.79,-999.0,yes,yes,no,300234063992660,UPTEMPO,PSC-UPTEMPO,Healy,North
2016-07-09T05:49:55Z,1468043395,2016,5,0,191.243,191.243,71.59189,-161.50729,1010.4,6.28,-999.0,yes,yes,no,300234063992660,UPTEMPO,PSC-UPTEMPO,Healy,North
2016-07-09T06:00:00Z,1468044000,2016,6,0,191.25,191.25,71.59136,-161.50818,1010.4,5.85,-999.0,yes,yes,no,300234063992660,UPTEMPO,PSC-UPTEMPO,Healy,North
2016-07-09T06:10:04Z,1468044605,2016,6,0,191.257,191.257,71.59342,-161.50558,1010.3,5.79,-999.0,yes,yes,no,300234063992660,UPTEMPO,PSC-UPTEMPO,Healy,North
2016-07-09T06:20:09Z,1468045210,2016,6,0,191.264,191.264,71.59454,-161.50467,1010.8,6.07,-999.0,yes,yes,no,300234063992660,UPTEMPO,PSC-UPTEMPO,Healy,North
2016-07-09T06:30:14Z,1468045814,2016,6,0,191.271,191.271,71.59379,-161.50633,1010.8,-1.0,-999.0,yes,yes,no,300234063992660,UPTEMPO,PSC-UPTEMPO,Healy,North
2016-07-09T06:40:19Z,1468046419,2016,6,0,191.278,191.278,71.59326,-161.50743,1010.6,-1.08,-999.0,yes,yes,no,300234063992660,UPTEMPO,PSC-UPTEMPO,Healy,North
2016-07-09T06:50:24Z,1468047024,2016,6,0,191.285,191.285,71.59272,-161.50884,1010.6,-0.81,-999.0,yes,yes,no,300234063992660,UPTEMPO,PSC-UPTEMPO,Healy,North
2016-07-09T07:00:28Z,1468047629,2016,7,0,191.292,191.292,71.59228,-161.51039,1010.6,-0.72,-999.0,yes,yes,no,300234063992660,UPTEMPO,PSC-UPTEMPO,Healy,North
2016-07-09T07:10:33Z,1468048234,2016,7,0,191.299,191.299,71.59193,-161.51215,1010.6,-0.61,-999.0,yes,yes,no,300234063992660,UPTEMPO,PSC-UPTEMPO,Healy,North
2016-07-09T07:19:12Z,1468048752,2016,7,0,191.305,191.305,71.59165,-161.51401,1010.5,-0.57,-999.0,yes,yes,no,300234063992660,UPTEMPO,PSC-UPTEMPO,Healy,North
2016-07-09T07:29:16Z,1468049357,2016,7,0,191.312,191.312,71.59147,-161.51584,1010.5,-0.47,-999.0,yes,yes,no,300234063992660,UPTEMPO,PSC-UPTEMPO,Healy,North
2016-07-09T07:40:48Z,1468050048,2016,7,0,191.32,191.32,71.59126,-161.51762,1010.5,-0.46,-999.0,yes,yes,no,300234063992660,UPTEMPO,PSC-UPTEMPO,Healy,North
2016-07-09T07:49:26Z,1468050566,2016,7,0,191.326,191.326,71.59109,-161.51944,1010.5,-0.44,-999.0,yes,yes,no,300234063992660,UPTEMPO,PSC-UPTEMPO,Healy,North
2016-07-09T07:59:31Z,1468051171,2016,8,0,191.333,191.333,71.59095,-161.52122,1010.5,-0.37,-999.0,yes,yes,no,300234063992660,UPTEMPO,PSC-UPTEMPO,Healy,North
2016-07-09T08:09:36Z,1468051776,2016,8,0,191.34,191.34,71.59081,-161.52287,1010.4,-0.38,-999.0,yes,yes,no,300234063992660,UPTEMPO,PSC-UPTEMPO,Healy,North
2016-07-09T08:19:40Z,1468052381,2016,8,0,191.347,191.347,71.59077,-161.52487,1010.4,-0.42,-999.0,yes,yes,no,300234063992660,UPTEMPO,PSC-UPTEMPO,Healy,North
2016-07-09T08:29:45Z,1468052986,2016,8,0,191.354,191.354,71.59075,-161.52649,1010.3,-0.29,-999.0,yes,yes,no,300234063992660,UPTEMPO,PSC-UPTEMPO,Healy,North
2016-07-09T08:39:50Z,1468053590,2016,8,0,191.361,191.361,71.59073,-161.52812,1010.2,-0.36,-999.0,yes,yes,no,300234063992660,UPTEMPO,PSC-UPTEMPO,Healy,North
2016-07-09T08:49:55Z,1468054195,2016,8,0,191.368,191.368,71.59081,-161.52962,1010.1,-0.21,-999.0,yes,yes,no,300234063992660,UPTEMPO,PSC-UPTEMPO,Healy,North
2016-07-09T09:00:00Z,1468054800,2016,9,0,191.375,191.375,71.59092,-161.53108,1010.2,-0.19,-999.0,yes,yes,no,300234063992660,UPTEMPO,PSC-UPTEMPO,Healy,North
2016-07-09T09:10:04Z,1468055405,2016,9,0,191.382,191.382,71.59105,-161.53244,1010.2,-0.11,-999.0,yes,yes,no,300234063992660,UPTEMPO,PSC-UPTEMPO,Healy,North
2016-07-09T09:20:09Z,1468056010,2016,9,0,191.389,191.389,71.59124,-161.53372,1010.1,-0.1,-999.0,yes,yes,no,300234063992660,UPTEMPO,PSC-UPTEMPO,Healy,North
2016-07-09T09:30:14Z,1468056614,2016,9,0,191.396,191.396,71.59148,-161.53505,1010.1,-0.17,-999.0,yes,yes,no,300234063992660,UPTEMPO,PSC-UPTEMPO,Healy,North
2016-07-09T09:40:19Z,1468057219,2016,9,0,191.403,191.403,71.59174,-161.53639,1010.0,-0.23,-999.0,yes,yes,no,300234063992660,UPTEMPO,PSC-UPTEMPO,Healy,North
2016-07-09T09:50:24Z,1468057824,2016,9,0,191.41,191.41,71.592,-161.53763,1010.0,-0.27,-999.0,yes,yes,no,300234063992660,UPTEMPO,PSC-UPTEMPO,Healy,North
2016-07-09T10:00:28Z,1468058429,2016,10,0,191.417,191.417,71.5923,-161.53883,1010.0,-0.24,-999.0,yes,yes,no,300234063992660,UPTEMPO,PSC-UPTEMPO,Healy,North
2016-07-09T10:10:33Z,1468059034,2016,10,0,191.424,191.424,71.59261,-161.54007,1009.9,-0.26,-999.0,yes,yes,no,300234063992660,UPTEMPO,PSC-UPTEMPO,Healy,North
2016-07-09T10:19:12Z,1468059552,2016,10,0,191.43,191.43,71.59295,-161.54129,1009.7,-0.2,-999.0,yes,yes,no,300234063992660,UPTEMPO,PSC-UPTEMPO,Healy,North
2016-07-09T10:30:43Z,1468060243,2016,10,0,191.438,191.438,71.59334,-161.54234,1009.8,-0.21,-999.0,yes,yes,no,300234063992660,UPTEMPO,PSC-UPTEMPO,Healy,North
2016-07-09T10:40:48Z,1468060848,2016,10,0,191.445,191.445,71.59372,-161.54321,1009.7,-0.08,-999.0,yes,yes,no,300234063992660,UPTEMPO,PSC-UPTEMPO,Healy,North
2016-07-09T10:49:26Z,1468061366,2016,10,0,191.451,191.451,71.59412,-161.54401,1009.6,-0.05,-999.0,yes,yes,no,300234063992660,UPTEMPO,PSC-UPTEMPO,Healy,North
2016-07-09T10:59:31Z,1468061971,2016,11,0,191.458,191.458,71.59448,-161.54468,1009.5,-0.02,-999.0,yes,yes,no,300234063992660,UPTEMPO,PSC-UPTEMPO,Healy,North
2016-07-09T11:09:36Z,1468062576,2016,11,0,191.465,191.465,71.59486,-161.54527,1009.5,-0.01,-999.0,yes,yes,no,300234063992660,UPTEMPO,PSC-UPTEMPO,Healy,North
2016-07-09T11:19:40Z,1468063181,2016,11,0,191.472,191.472,71.59524,-161.54585,1009.4,-0.02,-999.0,yes,yes,no,300234063992660,UPTEMPO,PSC-UPTEMPO,Healy,North
2016-07-09T11:29:45Z,1468063786,2016,11,0,191.479,191.479,71.59562,-161.5464,1009.3,-0.02,-999.0,yes,yes,no,300234063992660,UPTEMPO,PSC-UPTEMPO,Healy,North
2016-07-09T11:39:50Z,1468064390,2016,11,0,191.486,191.486,71.59601,-161.54691,1009.3,0.0,-999.0,yes,yes,no,300234063992660,UPTEMPO,PSC-UPTEMPO,Healy,North
2016-07-09T11:49:55Z,1468064995,2016,11,0,191.493,191.493,71.59638,-161.54726,1009.1,-0.04,-999.0,yes,yes,no,300234063992660,UPTEMPO,PSC-UPTEMPO,Healy,North
2016-07-09T12:00:00Z,1468065600,2016,12,0,191.5,191.5,71.59677,-161.54744,1009.1,-0.02,-999.0,yes,yes,no,300234063992660,UPTEMPO,PSC-UPTEMPO,Healy,North
2016-07-09T12:10:04Z,1468066205,2016,12,0,191.507,191.507,71.59712,-161.5475,1009.0,-0.05,-999.0,yes,yes,no,300234063992660,UPTEMPO,PSC-UPTEMPO,Healy,North
2016-07-09T12:20:09Z,1468066810,2016,12,0,191.514,191.514,71.59743,-161.54746,1008.9,-0.04,-999.0,yes,yes,no,300234063992660,UPTEMPO,PSC-UPTEMPO,Healy,North
2016-07-09T12:30:14Z,1468067414,2016,12,0,191.521,191.521,71.59768,-161.54748,1008.8,-0.03,-999.0,yes,yes,no,300234063992660,UPTEMPO,PSC-UPTEMPO,Healy,North
2016-07-09T12:40:19Z,1468068019,2016,12,0,191.528,191.528,71.59789,-161.54752,1008.7,-0.02,-999.0,yes,yes,no,300234063992660,UPTEMPO,PSC-UPTEMPO,Healy,North
2016-07-09T12:50:24Z,1468068624,2016,12,0,191.535,191.535,71.59808,-161.54741,1008.5,-0.05,-999.0,yes,yes,no,300234063992660,UPTEMPO,PSC-UPTEMPO,Healy,North
2016-07-09T13:00:28Z,1468069229,2016,13,0,191.542,191.542,71.59825,-161.54732,1008.4,-0.13,-999.0,yes,yes,no,300234063992660,UPTEMPO,PSC-UPTEMPO,Healy,North
2016-07-09T13:10:33Z,1468069834,2016,13,0,191.549,191.549,71.59839,-161.54704,1008.4,-0.11,-999.0,yes,yes,no,300234063992660,UPTEMPO,PSC-UPTEMPO,Healy,North
2016-07-09T13:19:12Z,1468070352,2016,13,0,191.555,191.555,71.59847,-161.54678,1008.3,-0.06,-999.0,yes,yes,no,300234063992660,UPTEMPO,PSC-UPTEMPO,Healy,North
2016-07-09T13:29:16Z,1468070957,2016,13,0,191.562,191.562,71.59856,-161.54656,1008.4,-0.06,-999.0,yes,yes,no,300234063992660,UPTEMPO,PSC-UPTEMPO,Healy,North
2016-07-09T13:40:48Z,1468071648,2016,13,0,191.57,191.57,71.59866,-161.54636,1008.4,-0.05,-999.0,yes,yes,no,300234063992660,UPTEMPO,PSC-UPTEMPO,Healy,North
2016-07-09T13:49:26Z,1468072166,2016,13,0,191.576,191.576,71.59874,-161.54614,1008.3,-0.06,-999.0,yes,yes,no,300234063992660,UPTEMPO,PSC-UPTEMPO,Healy,North
2016-07-09T13:59:31Z,1468072771,2016,14,0,191.583,191.583,71.59883,-161.54605,1008.2,-0.07,-999.0,yes,yes,no,300234063992660,UPTEMPO,PSC-UPTEMPO,Healy,North
2016-07-09T14:09:36Z,1468073376,2016,14,0,191.59,191.59,71.59887,-161.54587,1008.1,-0.08,-999.0,yes,yes,no,300234063992660,UPTEMPO,PSC-UPTEMPO,Healy,North
2016-07-09T14:19:40Z,1468073981,2016,14,0,191.597,191.597,71.59888,-161.54582,1008.1,-0.1,-999.0,yes,yes,no,300234063992660,UPTEMPO,PSC-UPTEMPO,Healy,North
2016-07-09T14:29:45Z,1468074586,2016,14,0,191.604,191.604,71.59887,-161.54582,1008.0,-0.06,-999.0,yes,yes,no,300234063992660,UPTEMPO,PSC-UPTEMPO,Healy,North
2016-07-09T14:39:50Z,1468075190,2016,14,0,191.611,191.611,71.59892,-161.54585,1008.0,-0.07,-999.0,yes,yes,no,300234063992660,UPTEMPO,PSC-UPTEMPO,Healy,North
2016-07-09T14:49:55Z,1468075795,2016,14,0,191.618,191.618,71.59885,-161.54579,1008.0,-0.04,-999.0,yes,yes,no,300234063992660,UPTEMPO,PSC-UPTEMPO,Healy,North
2016-07-09T15:00:00Z,1468076400,2016,15,0,191.625,191.625,71.59883,-161.54576,1007.8,-0.07,-999.0,yes,yes,no,300234063992660,UPTEMPO,PSC-UPTEMPO,Healy,North
2016-07-09T15:10:04Z,1468077005,2016,15,0,191.632,191.632,71.59878,-161.54587,1007.7,-0.04,-999.0,yes,yes,no,300234063992660,UPTEMPO,PSC-UPTEMPO,Healy,North
2016-07-09T15:20:09Z,1468077610,2016,15,0,191.639,191.639,71.59872,-161.54611,1007.6,-0.06,-999.0,yes,yes,no,300234063992660,UPTEMPO,PSC-UPTEMPO,Healy,North
2016-07-09T15:30:14Z,1468078214,2016,15,0,191.646,191.646,71.59864,-161.54643,1007.6,0.06,-999.0,yes,yes,no,300234063992660,UPTEMPO,PSC-UPTEMPO,Healy,North
2016-07-09T15:40:19Z,1468078819,2016,15,0,191.653,191.653,71.59847,-161.54663,1007.6,-0.04,-999.0,yes,yes,no,300234063992660,UPTEMPO,PSC-UPTEMPO,Healy,North
2016-07-09T15:50:24Z,1468079424,2016,15,0,191.66,191.66,71.5984,-161.54704,1007.6,0.01,-999.0,yes,yes,no,300234063992660,UPTEMPO,PSC-UPTEMPO,Healy,North
2016-07-09T16:00:28Z,1468080029,2016,16,0,191.667,191.667,71.59834,-161.54756,1007.5,-0.06,-999.0,yes,yes,no,300234063992660,UPTEMPO,PSC-UPTEMPO,Healy,North
2016-07-09T16:10:33Z,1468080634,2016,16,0,191.674,191.674,71.59827,-161.54814,1007.5,0.03,-999.0,yes,yes,no,300234063992660,UPTEMPO,PSC-UPTEMPO,Healy,North
2016-07-09T16:19:12Z,1468081152,2016,16,0,191.68,191.68,71.5982,-161.54883,1007.4,0.25,-999.0,yes,yes,no,300234063992660,UPTEMPO,PSC-UPTEMPO,Healy,North
2016-07-09T16:30:43Z,1468081843,2016,16,0,191.688,191.688,71.59818,-161.54959,1007.4,0.13,-999.0,yes,yes,no,300234063992660,UPTEMPO,PSC-UPTEMPO,Healy,North
2016-07-09T16:40:48Z,1468082448,2016,16,0,191.695,191.695,71.59818,-161.55041,1007.4,0.19,-999.0,yes,yes,no,300234063992660,UPTEMPO,PSC-UPTEMPO,Healy,North
2016-07-09T16:49:26Z,1468082966,2016,16,0,191.701,191.701,71.59815,-161.55129,1007.5,0.11,-999.0,yes,yes,no,300234063992660,UPTEMPO,PSC-UPTEMPO,Healy,North
2016-07-09T16:59:31Z,1468083571,2016,17,0,191.708,191.708,71.59812,-161.55214,1007.3,0.13,-999.0,yes,yes,no,300234063992660,UPTEMPO,PSC-UPTEMPO,Healy,North
2016-07-09T17:09:36Z,1468084176,2016,17,0,191.715,191.715,71.59813,-161.55292,1007.3,0.18,-999.0,yes,yes,no,300234063992660,UPTEMPO,PSC-UPTEMPO,Healy,North
2016-07-09T17:19:40Z,1468084781,2016,17,0,191.722,191.722,71.59819,-161.55388,1007.2,0.2,-999.0,yes,yes,no,300234063992660,UPTEMPO,PSC-UPTEMPO,Healy,North
2016-07-09T17:29:45Z,1468085386,2016,17,0,191.729,191.729,71.59824,-161.55478,1007.2,0.2,-999.0,yes,yes,no,300234063992660,UPTEMPO,PSC-UPTEMPO,Healy,North
2016-07-09T17:39:50Z,1468085990,2016,17,0,191.736,191.736,71.59831,-161.55571,1007.2,0.17,-999.0,yes,yes,no,300234063992660,UPTEMPO,PSC-UPTEMPO,Healy,North
2016-07-09T17:49:55Z,1468086595,2016,17,0,191.743,191.743,71.59837,-161.55666,1007.2,0.12,-999.0,yes,yes,no,300234063992660,UPTEMPO,PSC-UPTEMPO,Healy,North
2016-07-09T18:00:00Z,1468087200,2016,18,0,191.75,191.75,71.59844,-161.55763,1007.1,0.13,-999.0,yes,yes,no,300234063992660,UPTEMPO,PSC-UPTEMPO,Healy,North
2016-07-09T18:10:04Z,1468087805,2016,18,0,191.757,191.757,71.59856,-161.55862,1007.0,0.14,-999.0,yes,yes,no,300234063992660,UPTEMPO,PSC-UPTEMPO,Healy,North
2016-07-09T18:20:09Z,1468088410,2016,18,0,191.764,191.764,71.5987,-161.55971,1007.0,0.09,-999.0,yes,yes,no,300234063992660,UPTEMPO,PSC-UPTEMPO,Healy,North